This is the latest recevied weather packets stored in our database for station/object N2XP-2. If no packets are shown the sender has not sent any weather packets the latest 10 day(s).
| Time | Temp. | Humidity | Pressure | Rain* | Wind** | Luminosity | Snow |
|---|---|---|---|---|---|---|---|
| 1778195379 | 16.11° C | 62% | 1008.4 hPa | 0 mm | 0 m/s | - | - |
| 1778195080 | 16.11° C | 61% | 1008.3 hPa | 0 mm | 0.89 m/s, 233° | - | - |
| 1778194777 | 16.67° C | 62% | 1008.2 hPa | 0 mm | 0.45 m/s, 229° | - | - |
| 1778194478 | 16.67° C | 61% | 1008.1 hPa | 0 mm | 0 m/s | - | - |
| 1778194219 | 16.67° C | 60% | 1008.2 hPa | 0 mm | 0.89 m/s, 190° | - | - |
| 1778194179 | 16.67° C | 60% | 1008.2 hPa | 0 mm | 0.89 m/s, 190° | - | - |
| 1778193875 | 16.67° C | 60% | 1008.4 hPa | 0 mm | 0.45 m/s, 110° | - | - |
| 1778193784 | 17.22° C | 58% | 1008.5 hPa | 0 mm | 0 m/s | - | - |
| 1778193576 | 16.67° C | 60% | 1008.3 hPa | 0 mm | 0.45 m/s, 146° | - | - |
| 1778193277 | 16.67° C | 60% | 1008.5 hPa | 0 mm | 0 m/s | - | - |
| 1778192973 | 16.67° C | 59% | 1008.6 hPa | 0 mm | 0.89 m/s, 117° | - | - |
| 1778192673 | 16.67° C | 59% | 1008.5 hPa | 0 mm | 0.89 m/s, 160° | - | - |
| 1778192374 | 17.22° C | 59% | 1008.5 hPa | 0 mm | 0 m/s | - | - |
| 1778192071 | 17.22° C | 58% | 1008.5 hPa | 0 mm | 0 m/s | - | - |
| 1778191771 | 17.22° C | 57% | 1008.6 hPa | 0 mm | 0.45 m/s, 195° | - | - |
| 1778191587 | 17.78° C | 56% | 1008.5 hPa | 0 mm | 0.45 m/s, 177° | - | - |
| 1778191472 | 17.78° C | 56% | 1008.5 hPa | 0 mm | 0.45 m/s, 177° | - | - |
| 1778191169 | 17.78° C | 56% | 1008.5 hPa | 0 mm | 0.89 m/s, 153° | - | - |
| 1778190952 | 18.33° C | 55% | 1008.4 hPa | 0 mm | 0 m/s | - | - |
| 1778190868 | 18.33° C | 55% | 1008.4 hPa | 0 mm | 0 m/s | - | - |
| 1778190569 | 18.33° C | 55% | 1008.5 hPa | 0 mm | 0.89 m/s, 236° | - | - |
| 1778190265 | 18.33° C | 55% | 1008.5 hPa | 0 mm | 0.45 m/s, 295° | - | - |
| 1778189964 | 18.33° C | 54% | 1008.5 hPa | 0 mm | 0.89 m/s, 259° | - | - |
| 1778189950 | 18.33° C | 53% | 1008.1 hPa | 0 mm | 0 m/s | - | - |
| 1778189665 | 18.33° C | 53% | 1008.5 hPa | 0 mm | 0.89 m/s, 242° | - | - |
* Rain latest hour (hover to see other rain measurements)
** Current wind speed in m/s (hover to see current wind gust speed)